Starlink 11388

operational
NORAD ID: 62092 Int'l Des: 2024-220 Owner: SPXS Country: US Constellation: starlink
LEOCIRCULAR

关于 Starlink 11388

正在加载描述...

实时位置

正在加载3D地球...

即将过境

高度历史

Altitude vs Time

uPlot chart will show altitude changes over time

两行轨道根数

1 62092U 24220E 25305.13315100 .00315592 00000-0 23536-2 0 9994
2 62092 42.9990 98.0540 0001559 301.3663 58.7052 15.71013582 54731
Epoch: Nov 1, 2025 • Age: 19 hours

当前状态

高度 357.3 km
速度 7.70 km/s
星下点 36.14°N, 149.45°W
发射日期 Nov 25, 2024
运行时间 0.9 years
类型 internet

技术详情

分类 Payload
质量 960.00 kg
干质量 910.00 kg
总质量 960.00 kg
长度 0.30 m
直径 4.10 m
跨度 29.00 m
形状 Box + pan
制造商 SPXS
平台类型 Starlink V2MD
阶段状态 In Orbit
所有者/国家 SPXS/US

大型星座

Loading constellations...